Granite Falls, MN

10:49 AM CST on December 14, 2019 (GMT -0600)
Granite Falls

Weather History for KGDB - November, 2019

Change the Weather History Date:

Tuesday, November 19, 2019

  Actual Average (KMVE) Record (KMVE)
Temperature  
Mean Temperature 38 °F -  
Max Temperature 44 °F 38 °F 64 °F (1989)
Min Temperature 32 °F 22 °F -1 °F (1986)
Degree Days  
Heating Degree Days 27    
Moisture  
Dew Point 35 °F    
Average Humidity 85    
Maximum Humidity 97    
Minimum Humidity 76    
Precipitation  
Precipitation 0.02 in - - ()
Sea Level Pressure  
Sea Level Pressure 29.85 in    
Wind  
Wind Speed 8 mph (WNW)    
Max Wind Speed 13 mph    
Max Gust Speed -    
Visibility 9 miles    
Events      
Averages and records for this station are not official NWS values.
T = Trace of Precipitation, MM = Missing Value Source: NWS Daily Summary

Daily Weather History Graph

Daily Weather History Graph

Search for Another Location

Airport or City:

Astronomy

Nov. 19, 2019 Rise Set
Actual Time 7:24 AM CST 4:50 PM CST
Civil Twilight 6:52 AM CST 5:22 PM CST
Nautical Twilight 6:16 AM CST 5:58 PM CST
Astronomical Twilight 5:41 AM CST 6:32 PM CST
Moon 11:50 PM CST (11/19) 1:33 PM CST (11/19)
Length of Visible Light 10h 30m
Length of Day
9h 26m
Waning Gibbous, 51% of the Moon is Illuminated
Nov 19
Waning Gibbous
Nov 19
Last Quarter
Nov 26
New
Dec 4
First Quarter
Dec 11
Full

Hourly Weather History & Observations

Time (CST) Temp. Windchill Dew Point Humidity Pressure Visibility Wind Dir Wind Speed Gust Speed Precip Events Conditions
12:18 AM 36.5 °F 29.7 °F 35.6 °F 97% 29.70 in 7.0 mi WSW 9.2 mph - N/A   Mostly Cloudy
12:37 AM 36.0 °F 28.0 °F 35.1 °F 97% 29.70 in 10.0 mi WSW 11.5 mph - N/A   Scattered Clouds
12:56 AM 36.5 °F 31.0 °F 35.4 °F 96% 29.70 in 10.0 mi West 6.9 mph - N/A   Clear
1:15 AM 36.5 °F 30.3 °F 35.2 °F 95% 29.71 in 10.0 mi WSW 8.1 mph - N/A   Clear
1:16 AM 36.5 °F 30.3 °F 35.2 °F 95% 29.71 in 10.0 mi WSW 8.1 mph - N/A   Clear
1:35 AM 36.1 °F 29.9 °F 34.9 °F 95% 29.71 in 10.0 mi West 8.1 mph - N/A   Clear
1:57 AM 35.6 °F 28.0 °F 34.0 °F 94% 29.70 in 10.0 mi West 10.4 mph - N/A   Clear
2:16 AM 36.5 °F 28.7 °F 34.7 °F 93% 29.70 in 10.0 mi West 11.5 mph - N/A   Clear
2:35 AM 36.5 °F 29.2 °F 34.2 °F 91% 29.71 in 10.0 mi West 10.4 mph - N/A   Clear
2:36 AM 36.5 °F 29.2 °F 34.2 °F 91% 29.71 in 10.0 mi West 10.4 mph - N/A   Clear
2:55 AM 35.6 °F 28.0 °F 33.1 °F 91% 29.71 in 10.0 mi West 10.4 mph - N/A   Clear
2:56 AM 35.6 °F 28.0 °F 33.1 °F 91% 29.71 in 10.0 mi West 10.4 mph - N/A   Clear
3:19 AM 34.9 °F 26.6 °F 32.9 °F 92% 29.72 in 10.0 mi West 11.5 mph - N/A   Clear
3:36 AM 34.7 °F 26.9 °F 32.4 °F 91% 29.72 in 10.0 mi West 10.4 mph - N/A   Clear
3:55 AM 34.7 °F 26.9 °F 32.2 °F 91% 29.72 in 10.0 mi West 10.4 mph - N/A   Clear
4:15 AM 35.2 °F 27.6 °F 32.4 °F 89% 29.73 in 10.0 mi WNW 10.4 mph - N/A   Clear
4:16 AM 35.4 °F 27.8 °F 32.4 °F 89% 29.73 in 7.0 mi West 10.4 mph - N/A   Clear
4:35 AM 34.7 °F 27.5 °F 32.0 °F 90% 29.74 in 10.0 mi West 9.2 mph - N/A   Clear
4:39 AM 34.7 °F 26.9 °F 32.0 °F 90% 29.74 in 10.0 mi West 10.4 mph - N/A   Clear
4:58 AM 34.2 °F 26.8 °F 32.0 °F 92% 29.75 in 10.0 mi West 9.2 mph - N/A   Clear
5:35 AM 34.2 °F 26.8 °F 32.0 °F 92% 29.75 in 10.0 mi WNW 9.2 mph - N/A   Clear
5:36 AM 34.2 °F 26.8 °F 32.0 °F 92% 29.75 in 10.0 mi WNW 9.2 mph - N/A   Clear
5:55 AM 34.7 °F 27.5 °F 32.0 °F 90% 29.75 in 10.0 mi WNW 9.2 mph - N/A   Clear
5:56 AM 34.7 °F 27.5 °F 32.0 °F 90% 29.75 in 10.0 mi WNW 9.2 mph - N/A   Clear
6:18 AM 32.9 °F 25.9 °F 30.7 °F 92% 29.76 in 10.0 mi West 8.1 mph - N/A   Clear
6:37 AM 32.4 °F 24.6 °F 30.9 °F 94% 29.77 in 10.0 mi West 9.2 mph - N/A   Clear
6:56 AM 32.0 °F 24.2 °F 30.2 °F 93% 29.78 in 10.0 mi West 9.2 mph - N/A   Clear
7:15 AM 32.0 °F 24.8 °F 30.2 °F 93% 29.79 in 7.0 mi West 8.1 mph - N/A   Clear
7:16 AM 32.0 °F 24.8 °F 30.2 °F 93% 29.79 in 7.0 mi West 8.1 mph - N/A   Clear
7:35 AM 32.2 °F 25.0 °F 30.6 °F 94% 29.80 in 7.0 mi West 8.1 mph - N/A   Scattered Clouds
7:57 AM 33.4 °F 27.3 °F 31.6 °F 93% 29.81 in 7.0 mi West 6.9 mph - N/A   Mostly Cloudy
8:15 AM 34.7 °F 28.1 °F 32.2 °F 91% 29.81 in 10.0 mi West 8.1 mph - N/A   Overcast
8:35 AM 35.2 °F 29.5 °F 32.4 °F 89% 29.81 in 10.0 mi West 6.9 mph - N/A   Overcast
8:36 AM 35.2 °F 29.5 °F 32.4 °F 89% 29.81 in 10.0 mi West 6.9 mph - N/A   Overcast
8:55 AM 36.1 °F 29.9 °F 33.3 °F 89% 29.82 in 10.0 mi West 8.1 mph - N/A   Overcast
8:56 AM 36.1 °F 29.9 °F 33.3 °F 89% 29.82 in 10.0 mi West 8.1 mph - N/A   Overcast
9:19 AM 36.5 °F 30.3 °F 33.6 °F 89% 29.83 in 10.0 mi West 8.1 mph - N/A   Overcast
9:56 AM 38.3 °F 31.4 °F 34.7 °F 87% 29.84 in 10.0 mi West 10.4 mph - N/A   Overcast
10:15 AM 38.7 °F 32.4 °F 35.2 °F 87% 29.84 in 10.0 mi West 9.2 mph - N/A   Overcast
10:35 AM 40.1 °F 33.2 °F 36.5 °F 87% 29.85 in 10.0 mi West 11.5 mph - N/A   Overcast
10:39 AM 40.1 °F 33.2 °F 36.3 °F 86% 29.85 in 10.0 mi WNW 11.5 mph - N/A   Overcast
10:57 AM 40.5 °F 34.6 °F 36.5 °F 86% 29.86 in 5.0 mi WNW 9.2 mph - N/A   Haze
11:16 AM 41.7 °F 35.2 °F 37.4 °F 85% 29.86 in 10.0 mi WNW 11.5 mph - N/A   Overcast
11:35 AM 42.4 °F 36.1 °F 37.8 °F 83% 29.86 in 10.0 mi WNW 11.5 mph - N/A   Overcast
11:36 AM 42.4 °F 35.7 °F 37.8 °F 83% 29.86 in 10.0 mi WNW 12.7 mph - N/A   Overcast
11:55 AM 43.0 °F 37.2 °F 38.1 °F 83% 29.86 in 10.0 mi NW 10.4 mph - N/A   Overcast
11:56 AM 43.0 °F 37.2 °F 38.1 °F 83% 29.86 in 7.0 mi NW 10.4 mph - N/A   Overcast
12:18 PM 43.7 °F 37.7 °F 38.3 °F 81% 29.87 in 7.0 mi NW 11.5 mph - N/A   Overcast
12:36 PM 43.7 °F 38.6 °F 38.3 °F 81% 29.87 in 10.0 mi WNW 9.2 mph - N/A   Overcast
12:55 PM 43.9 °F 38.3 °F 38.7 °F 82% 29.88 in 10.0 mi WNW 10.4 mph - N/A   Overcast
1:15 PM 44.1 °F 38.6 °F 38.5 °F 81% 29.88 in 7.0 mi WNW 10.4 mph - N/A   Overcast
1:35 PM 44.2 °F 38.8 °F 38.5 °F 80% 29.88 in 7.0 mi WNW 10.4 mph - N/A   Overcast
1:39 PM 44.2 °F 38.4 °F 38.5 °F 80% 29.88 in 7.0 mi WNW 11.5 mph - N/A   Overcast
1:58 PM 44.1 °F 39.0 °F 38.5 °F 81% 29.88 in 10.0 mi WNW 9.2 mph - N/A   Overcast
2:35 PM 43.7 °F 39.1 °F 37.8 °F 80% 29.89 in 7.0 mi NW 8.1 mph - N/A   Overcast
2:36 PM 43.7 °F 39.1 °F 37.8 °F 80% 29.89 in 7.0 mi NW 8.1 mph - N/A   Overcast
2:55 PM 43.7 °F 38.6 °F 37.6 °F 79% 29.89 in 10.0 mi NW 9.2 mph - N/A   Overcast
3:15 PM 43.5 °F 38.9 °F 36.5 °F 76% 29.89 in 10.0 mi NW 8.1 mph - N/A   Overcast
3:16 PM 43.5 °F 38.9 °F 36.3 °F 76% 29.89 in 10.0 mi NW 8.1 mph - N/A   Overcast
3:35 PM 43.0 °F 38.8 °F 37.0 °F 80% 29.89 in 10.0 mi WNW 6.9 mph - N/A   Overcast
3:55 PM 42.8 °F 38.6 °F 36.1 °F 77% 29.89 in 4.0 mi NW 6.9 mph - N/A   Haze
4:15 PM 42.3 °F 39.4 °F 36.0 °F 78% 29.89 in 4.0 mi NW 4.6 mph - N/A   Haze
4:16 PM 42.3 °F 39.4 °F 35.8 °F 78% 29.89 in 4.0 mi NW 4.6 mph - N/A   Haze
4:35 PM 42.1 °F 37.7 °F 35.8 °F 78% 29.90 in 5.0 mi NW 6.9 mph - N/A   Haze
4:55 PM 41.9 °F 39.0 °F 35.6 °F 78% 29.91 in 10.0 mi WNW 4.6 mph - N/A   Overcast
5:15 PM 41.9 °F 38.2 °F 35.6 °F 78% 29.91 in 7.0 mi West 5.8 mph - N/A   Overcast
5:35 PM 41.9 °F 40.0 °F 35.8 °F 79% 29.91 in 10.0 mi NNW 3.5 mph - N/A   Overcast
5:55 PM 40.8 °F - 35.8 °F 82% 29.92 in 7.0 mi Calm Calm - N/A   Overcast
6:15 PM 41.7 °F 39.8 °F 35.6 °F 79% 29.93 in 5.0 mi NNW 3.5 mph - N/A   Haze
6:16 PM 41.7 °F 39.8 °F 35.6 °F 79% 29.93 in 5.0 mi North 3.5 mph - N/A   Haze
6:35 PM 41.0 °F 38.0 °F 35.6 °F 81% 29.93 in 10.0 mi NNW 4.6 mph - N/A   Overcast
6:55 PM 41.4 °F 39.4 °F 35.2 °F 79% 29.94 in 7.0 mi North 3.5 mph - N/A   Overcast
7:15 PM 40.6 °F - 35.6 °F 82% 29.94 in 7.0 mi Calm Calm - N/A   Overcast
7:16 PM 40.8 °F 38.8 °F 35.6 °F 82% 29.94 in 7.0 mi NW 3.5 mph - N/A   Overcast
7:35 PM 40.5 °F 38.4 °F 35.1 °F 81% 29.95 in 5.0 mi NW 3.5 mph - N/A   Haze
7:55 PM 41.0 °F - 34.9 °F 79% 29.96 in 7.0 mi Calm Calm - N/A   Overcast
7:56 PM 40.8 °F - 34.9 °F 79% 29.95 in 7.0 mi Calm Calm - N/A   Overcast
8:15 PM 41.0 °F - 34.7 °F 78% 29.95 in 7.0 mi Calm Calm - N/A   Overcast
8:16 PM 41.0 °F - 34.7 °F 78% 29.95 in 7.0 mi Calm Calm - N/A   Overcast
8:35 PM 41.5 °F 39.6 °F 34.7 °F 77% 29.95 in 7.0 mi NE 3.5 mph - N/A   Overcast
8:36 PM 41.5 °F - 34.7 °F 77% 29.96 in 7.0 mi Calm Calm - N/A   Overcast
8:55 PM 40.1 °F 38.0 °F 35.4 °F 83% 29.96 in 10.0 mi ENE 3.5 mph - N/A   Overcast
8:56 PM 40.1 °F 38.0 °F 35.6 °F 84% 29.96 in 10.0 mi ENE 3.5 mph - N/A   Overcast
9:15 PM 40.5 °F - 34.9 °F 80% 29.97 in 10.0 mi Calm Calm - N/A   Overcast
9:35 PM 40.3 °F - 34.9 °F 81% 29.98 in 10.0 mi Calm Calm - N/A   Overcast
9:36 PM 40.5 °F - 34.9 °F 80% 29.98 in 10.0 mi Calm Calm - N/A   Overcast
9:55 PM 40.1 °F 38.0 °F 34.9 °F 82% 29.97 in 10.0 mi East 3.5 mph - N/A   Overcast
10:15 PM 39.7 °F - 34.7 °F 82% 29.99 in 7.0 mi Calm Calm - N/A   Overcast
10:35 PM 39.7 °F - 35.4 °F 85% 29.99 in 10.0 mi Calm Calm - N/A   Overcast
10:36 PM 39.7 °F - 35.4 °F 85% 29.99 in 7.0 mi Calm Calm - N/A   Overcast
10:55 PM 38.5 °F - 34.7 °F 86% 29.99 in 7.0 mi Calm Calm - N/A   Overcast
11:15 PM 39.0 °F - 34.9 °F 85% 29.99 in 7.0 mi Calm Calm - N/A   Overcast
11:16 PM 38.8 °F - 34.9 °F 86% 29.99 in 7.0 mi Calm Calm - N/A   Overcast
11:35 PM 38.7 °F - 35.1 °F 87% 29.99 in 7.0 mi Calm Calm - N/A   Overcast
11:55 PM 39.4 °F - 35.4 °F 86% 29.99 in 7.0 mi Calm Calm - N/A   Overcast
11:56 PM 39.4 °F 37.2 °F 35.4 °F 86% 29.99 in 7.0 mi East 3.5 mph - N/A   Overcast